NORTHERN NASSAU  -  Flash Flood Watch Flash Flood Watch     Rip Current Statement Rip Current Statement        NORTHERN QUEENS  -  Flash Flood Watch Flash Flood Watch     Rip Current Statement Rip Current Statement        SOUTHERN NASSAU  -  Flash Flood Watch Flash Flood Watch     Rip Current Statement Rip Current Statement        SOUTHERN QUEENS  -  Flash Flood Watch Flash Flood Watch     Rip Current Statement Rip Current Statement        NORTHEAST SUFFOLK  -  Rip Current Statement Rip Current Statement        NORTHWEST SUFFOLK  -  Rip Current Statement Rip Current Statement        SOUTHEAST SUFFOLK  -  Rip Current Statement Rip Current Statement        SOUTHWEST SUFFOLK  -  Rip Current Statement Rip Current Statement      

Active alerts

Northern Queens
  Details for Northern Queens Flash Flood Watch  +1 additional alert
Southern Queens
  Details for Southern Queens Flash Flood Watch  +1 additional alert
Northern Nassau
  Details for Northern Nassau Flash Flood Watch  +1 additional alert
Southern Nassau
  Details for Southern Nassau Flash Flood Watch  +1 additional alert
Northwest Suffolk
  Details for Northwest Suffolk Rip Current Statement
Southwest Suffolk
  Details for Southwest Suffolk Rip Current Statement
Northeast Suffolk
  Details for Northeast Suffolk Rip Current Statement
Southeast Suffolk
  Details for Southeast Suffolk Rip Current Statement


WXM80 ListenWXM80 Stop

You find our weather info also at:

UK Metoffice

WeatherCloud

Weather Underground

Northeastern Weather Network

AWEKAS

Citizen Weather Observer Program (CWOP)

HAMweather, WeatherForYou, PWS Weather


Weather Underground History page Text

Daily Summary for August 14, 2017 Units:  English    Metric   Both
« Previous Day
Next Day »
Daily Weekly Monthly Yearly Custom
  High: Low: Average:
Temperature: 79.4 °F 65.0 °F 72.5 °F
Dew Point: 71.4 °F 62.6 °F 67.1 °F
Humidity: 96 % 73 % 84 %
Wind Speed: 2.5 mph 0.0 mph 0.3 mph
Wind Gust: 4.6 mph - -
Wind:- - ENE
Pressure: 30.00 in 29.90 in -
Precipitation: 0.00 in    
Historical Graphs
 
 
Tabular Data for August 14, 2017
Time Temperature Dew Point Pressure Wind Wind Speed Wind Gust Humidity Rainfall Rate (Hourly)
00:01 68.3 °F 63.9 °F 29.97 in Calm     86 % 0.00 in
00:06 68.1 °F 64.1 °F 29.97 in Calm     87 % 0.00 in
00:11 68.0 °F 64.0 °F 29.97 in Calm     87 % 0.00 in
00:16 67.9 °F 63.9 °F 29.97 in Calm     87 % 0.00 in
00:21 67.8 °F 63.8 °F 29.97 in Calm     87 % 0.00 in
00:26 67.7 °F 63.7 °F 29.97 in Calm     87 % 0.00 in
00:31 67.6 °F 63.6 °F 29.97 in Calm     87 % 0.00 in
00:36 67.5 °F 63.5 °F 29.97 in Calm     87 % 0.00 in
00:41 67.4 °F 63.7 °F 29.97 in Calm     88 % 0.00 in
00:46 67.3 °F 63.6 °F 29.96 in Calm     88 % 0.00 in
00:51 67.2 °F 63.5 °F 29.96 in Calm     88 % 0.00 in
00:56 67.1 °F 63.7 °F 29.96 in Calm     89 % 0.00 in
01:01 67.0 °F 63.6 °F 29.96 in Calm     89 % 0.00 in
01:06 67.0 °F 63.6 °F 29.96 in Calm     89 % 0.00 in
01:11 66.8 °F 63.5 °F 29.97 in Calm     89 % 0.00 in
01:16 66.8 °F 63.5 °F 29.97 in Calm     89 % 0.00 in
01:19 66.7 °F 63.7 °F 29.97 in Calm     90 % 0.00 in
01:24 66.6 °F 63.3 °F 29.96 in Calm     89 % 0.00 in
01:29 66.5 °F 63.2 °F 29.97 in Calm     89 % 0.00 in
01:34 66.4 °F 63.1 °F 29.97 in Calm     89 % 0.00 in
01:39 66.4 °F 63.4 °F 29.97 in Calm     90 % 0.00 in
01:44 66.3 °F 63.3 °F 29.97 in Calm     90 % 0.00 in
01:49 66.2 °F 63.2 °F 29.97 in Calm     90 % 0.00 in
01:54 66.1 °F 63.1 °F 29.97 in Calm     90 % 0.00 in
02:00 66.0 °F 63.0 °F 29.97 in Calm     90 % 0.00 in
02:05 66.0 °F 63.0 °F 29.97 in Calm     90 % 0.00 in
02:10 65.9 °F 62.9 °F 29.96 in Calm     90 % 0.00 in
02:15 65.9 °F 62.9 °F 29.97 in Calm     90 % 0.00 in
02:20 65.8 °F 62.8 °F 29.96 in Calm     90 % 0.00 in
02:25 65.7 °F 63.0 °F 29.96 in Calm     91 % 0.00 in
02:30 65.7 °F 63.0 °F 29.97 in Calm     91 % 0.00 in
02:35 65.7 °F 63.0 °F 29.97 in Calm     91 % 0.00 in
02:40 65.6 °F 62.9 °F 29.97 in Calm     91 % 0.00 in
02:45 65.5 °F 62.8 °F 29.97 in Calm     91 % 0.00 in
02:50 65.5 °F 62.8 °F 29.97 in Calm     91 % 0.00 in
02:55 65.4 °F 62.7 °F 29.97 in Calm     91 % 0.00 in
03:00 65.4 °F 62.7 °F 29.97 in Calm     91 % 0.00 in
03:05 65.4 °F 62.7 °F 29.97 in Calm     91 % 0.00 in
03:10 65.3 °F 62.6 °F 29.98 in Calm     91 % 0.00 in
03:15 65.2 °F 62.8 °F 29.97 in Calm     92 % 0.00 in
03:20 65.2 °F 62.8 °F 29.97 in Calm     92 % 0.00 in
03:26 65.2 °F 62.8 °F 29.98 in Calm     92 % 0.00 in
03:31 65.1 °F 62.7 °F 29.97 in Calm     92 % 0.00 in
03:36 65.1 °F 62.7 °F 29.97 in Calm     92 % 0.00 in
03:41 65.0 °F 62.7 °F 29.97 in Calm     92 % 0.00 in
03:45 65.1 °F 62.7 °F 29.98 in WNW 0.1 mph 1.2 mph 92 % 0.00 in
03:50 65.1 °F 63.0 °F 29.97 in Calm     93 % 0.00 in
03:53 65.1 °F 63.0 °F 29.97 in Calm     93 % 0.00 in
03:58 65.1 °F 63.0 °F 29.97 in Calm     93 % 0.00 in
04:03 65.1 °F 63.0 °F 29.97 in Calm     93 % 0.00 in
04:08 65.1 °F 63.0 °F 29.97 in Calm     93 % 0.00 in
04:13 65.2 °F 63.1 °F 29.97 in Calm     93 % 0.00 in
04:18 65.2 °F 63.1 °F 29.97 in Calm     93 % 0.00 in
04:23 65.2 °F 63.1 °F 29.97 in Calm     93 % 0.00 in
04:28 65.2 °F 63.4 °F 29.97 in Calm     94 % 0.00 in
04:33 65.3 °F 63.5 °F 29.97 in Calm     94 % 0.00 in
04:38 65.3 °F 63.5 °F 29.97 in Calm     94 % 0.00 in
04:43 65.3 °F 63.5 °F 29.97 in Calm     94 % 0.00 in
04:48 65.3 °F 63.5 °F 29.97 in Calm     94 % 0.00 in
04:53 65.3 °F 63.5 °F 29.97 in Calm     94 % 0.00 in
04:58 65.3 °F 63.5 °F 29.97 in Calm     94 % 0.00 in
05:03 65.3 °F 63.5 °F 29.97 in Calm     94 % 0.00 in
05:08 65.3 °F 63.5 °F 29.97 in Calm     94 % 0.00 in
05:14 65.2 °F 63.4 °F 29.97 in Calm     94 % 0.00 in
05:19 65.2 °F 63.4 °F 29.97 in Calm     94 % 0.00 in
05:24 65.2 °F 63.4 °F 29.97 in Calm     94 % 0.00 in
05:29 65.2 °F 63.4 °F 29.97 in Calm     94 % 0.00 in
05:34 65.2 °F 63.4 °F 29.97 in Calm     94 % 0.00 in
05:39 65.2 °F 63.4 °F 29.97 in Calm     94 % 0.00 in
05:44 65.2 °F 63.4 °F 29.97 in Calm     94 % 0.00 in
05:49 65.2 °F 63.4 °F 29.97 in Calm     94 % 0.00 in
05:54 65.2 °F 63.4 °F 29.97 in Calm     94 % 0.00 in
05:59 65.2 °F 63.4 °F 29.98 in Calm     94 % 0.00 in
06:04 65.2 °F 63.4 °F 29.97 in Calm     94 % 0.00 in
06:09 65.2 °F 63.4 °F 29.97 in Calm     94 % 0.00 in
06:12 65.1 °F 63.3 °F 29.98 in Calm     94 % 0.00 in
06:17 65.1 °F 63.3 °F 29.98 in Calm     94 % 0.00 in
06:22 65.1 °F 63.3 °F 29.99 in Calm     94 % 0.00 in
06:27 65.0 °F 63.2 °F 29.99 in Calm     94 % 0.00 in
06:32 65.0 °F 63.2 °F 29.99 in Calm     94 % 0.00 in
06:37 65.0 °F 63.5 °F 29.99 in Calm     95 % 0.00 in
06:42 65.0 °F 63.5 °F 29.99 in Calm     95 % 0.00 in
06:47 65.1 °F 63.6 °F 29.99 in Calm     95 % 0.00 in
06:52 65.1 °F 63.6 °F 29.99 in Calm     95 % 0.00 in
06:58 65.2 °F 63.7 °F 29.99 in Calm     95 % 0.00 in
07:03 65.2 °F 63.7 °F 29.99 in Calm     95 % 0.00 in
07:08 65.3 °F 63.8 °F 30.00 in Calm     95 % 0.00 in
07:13 65.4 °F 63.9 °F 30.00 in Calm     95 % 0.00 in
07:18 65.6 °F 64.4 °F 30.00 in Calm     96 % 0.00 in
07:23 65.8 °F 64.6 °F 30.00 in Calm     96 % 0.00 in
07:28 66.1 °F 64.9 °F 30.00 in Calm     96 % 0.00 in
07:33 66.2 °F 65.0 °F 30.00 in Calm     96 % 0.00 in
07:38 66.5 °F 65.3 °F 30.00 in Calm   1.0 mph 96 % 0.00 in
07:43 66.7 °F 65.5 °F 30.00 in ENE 1.2 mph 3.5 mph 96 % 0.00 in
07:48 67.0 °F 65.8 °F 30.00 in NE 1.3 mph 3.5 mph 96 % 0.00 in
07:53 67.2 °F 66.0 °F 30.00 in ENE 1.5 mph 3.5 mph 96 % 0.00 in
07:58 67.5 °F 66.0 °F 30.00 in NE 0.9 mph 3.5 mph 95 % 0.00 in
08:03 67.7 °F 65.9 °F 30.00 in NE 1.3 mph 3.5 mph 94 % 0.00 in
08:08 68.1 °F 66.0 °F 30.00 in ENE 0.2 mph 3.5 mph 93 % 0.00 in
08:13 68.5 °F 66.1 °F 30.00 in NE 0.3 mph 3.5 mph 92 % 0.00 in
08:18 68.9 °F 66.2 °F 30.00 in ENE 0.3 mph 1.2 mph 91 % 0.00 in
08:23 69.3 °F 66.2 °F 30.00 in Calm   1.2 mph 90 % 0.00 in
08:28 69.7 °F 66.3 °F 29.99 in Calm   1.2 mph 89 % 0.00 in
08:33 69.9 °F 66.2 °F 29.99 in Calm     88 % 0.00 in
08:38 70.2 °F 66.5 °F 30.00 in Calm     88 % 0.00 in
08:44 70.4 °F 66.3 °F 29.99 in Calm     87 % 0.00 in
08:48 70.6 °F 66.5 °F 30.00 in ENE 0.6 mph 2.3 mph 87 % 0.00 in
08:54 70.8 °F 66.1 °F 30.00 in ENE 0.3 mph 2.3 mph 85 % 0.00 in
08:59 71.0 °F 65.9 °F 30.00 in NE 2.5 mph 3.5 mph 84 % 0.00 in
09:04 71.2 °F 66.1 °F 30.00 in NE 0.3 mph 1.2 mph 84 % 0.00 in
09:09 71.5 °F 66.4 °F 30.00 in Calm   1.2 mph 84 % 0.00 in
09:14 71.8 °F 66.4 °F 30.00 in NE 0.5 mph 1.2 mph 83 % 0.00 in
09:19 72.0 °F 66.2 °F 29.99 in NE 0.4 mph 2.0 mph 82 % 0.00 in
09:24 72.3 °F 66.5 °F 29.99 in NNE 1.4 mph 3.5 mph 82 % 0.00 in
09:29 72.6 °F 66.8 °F 29.99 in NE 0.5 mph 1.2 mph 82 % 0.00 in
09:34 72.8 °F 66.6 °F 30.00 in NE 1.6 mph 4.6 mph 81 % 0.00 in
09:39 73.0 °F 67.2 °F 30.00 in ENE 0.7 mph 2.3 mph 82 % 0.00 in
09:44 73.3 °F 67.1 °F 30.00 in ENE 0.2 mph 1.2 mph 81 % 0.00 in
09:49 73.8 °F 68.0 °F 29.99 in ENE 0.8 mph 2.0 mph 82 % 0.00 in
09:54 74.3 °F 67.7 °F 29.99 in NE 0.8 mph 1.2 mph 80 % 0.00 in
09:59 74.6 °F 67.7 °F 30.00 in NE 0.6 mph 2.0 mph 79 % 0.00 in
10:04 75.0 °F 67.3 °F 29.99 in NE 2.1 mph 4.6 mph 77 % 0.00 in
10:09 75.3 °F 68.0 °F 29.99 in NE 1.3 mph 3.5 mph 78 % 0.00 in
10:14 75.7 °F 68.0 °F 29.99 in ENE 2.1 mph 3.5 mph 77 % 0.00 in
10:19 76.0 °F 68.3 °F 29.99 in NE 0.6 mph 1.2 mph 77 % 0.00 in
10:25 76.2 °F 68.5 °F 29.99 in North 0.3 mph 2.3 mph 77 % 0.00 in
10:26 76.2 °F 68.1 °F 29.99 in NE 1.7 mph 3.0 mph 76 % 0.00 in
10:31 76.1 °F 68.0 °F 29.99 in Calm   3.5 mph 76 % 0.00 in
10:36 76.0 °F 67.9 °F 29.99 in Calm   2.0 mph 76 % 0.00 in
10:41 76.1 °F 68.4 °F 29.99 in ENE 2.0 mph 4.0 mph 77 % 0.00 in
10:46 76.4 °F 68.3 °F 29.99 in NE 1.0 mph 2.0 mph 76 % 0.00 in
10:51 76.9 °F 68.8 °F 29.99 in NE 1.0 mph 3.0 mph 76 % 0.00 in
10:56 77.3 °F 69.1 °F 29.99 in NE 1.0 mph 3.0 mph 76 % 0.00 in
10:57 77.4 °F 68.9 °F 29.99 in NE 0.9 mph 3.5 mph 75 % 0.00 in
11:02 77.3 °F 68.8 °F 29.99 in NE 1.4 mph 3.5 mph 75 % 0.00 in
11:06 77.4 °F 68.9 °F 29.99 in ENE 2.2 mph 3.5 mph 75 % 0.00 in
11:11 77.4 °F 68.9 °F 29.99 in ENE 1.8 mph 3.5 mph 75 % 0.00 in
11:17 77.4 °F 69.2 °F 29.99 in Calm   3.5 mph 76 % 0.00 in
11:22 77.5 °F 69.7 °F 29.99 in Calm   1.2 mph 77 % 0.00 in
11:27 77.8 °F 69.6 °F 29.98 in NNE 1.8 mph 4.6 mph 76 % 0.00 in
11:32 78.1 °F 70.3 °F 29.99 in NE 1.7 mph 3.5 mph 77 % 0.00 in
11:37 78.2 °F 69.6 °F 29.98 in NE 1.4 mph 4.6 mph 75 % 0.00 in
11:42 78.1 °F 69.5 °F 29.99 in NE 1.0 mph 3.5 mph 75 % 0.00 in
11:47 78.1 °F 69.9 °F 29.98 in North 1.3 mph 3.5 mph 76 % 0.00 in
11:52 77.9 °F 69.3 °F 29.98 in NE 0.8 mph 3.5 mph 75 % 0.00 in
11:57 77.7 °F 69.5 °F 29.98 in NNE 1.2 mph 2.3 mph 76 % 0.00 in
12:02 77.5 °F 68.9 °F 29.98 in North 1.1 mph 3.0 mph 75 % 0.00 in
12:07 77.4 °F 69.2 °F 29.98 in NNE 1.0 mph 2.3 mph 76 % 0.00 in
12:12 77.1 °F 68.9 °F 29.98 in NE 1.1 mph 3.5 mph 76 % 0.00 in
12:17 76.8 °F 69.0 °F 29.98 in NE 0.8 mph 4.0 mph 77 % 0.00 in
12:22 76.7 °F 68.9 °F 29.98 in NE 0.4 mph 2.3 mph 77 % 0.00 in
12:27 76.7 °F 69.3 °F 29.97 in NE 2.3 mph 4.0 mph 78 % 0.00 in
12:32 77.0 °F 69.2 °F 29.97 in ENE 0.7 mph 3.5 mph 77 % 0.00 in
12:37 77.3 °F 69.9 °F 29.97 in ENE 0.2 mph 1.2 mph 78 % 0.00 in
12:42 77.6 °F 69.4 °F 29.98 in ENE 0.8 mph 3.5 mph 76 % 0.00 in
12:47 77.8 °F 69.6 °F 29.97 in ENE 2.5 mph 3.5 mph 76 % 0.00 in
12:52 78.2 °F 70.0 °F 29.97 in North 1.8 mph 3.5 mph 76 % 0.00 in
12:57 78.7 °F 70.1 °F 29.97 in North 0.2 mph 2.3 mph 75 % 0.00 in
13:02 78.8 °F 69.8 °F 29.97 in North 0.2 mph 2.3 mph 74 % 0.00 in
13:08 79.1 °F 70.9 °F 29.97 in NE 1.5 mph 4.6 mph 76 % 0.00 in
13:13 79.2 °F 70.2 °F 29.96 in NNE 1.1 mph 3.5 mph 74 % 0.00 in
13:18 79.4 °F 70.8 °F 29.97 in NNE 1.7 mph 3.5 mph 75 % 0.00 in
13:23 79.4 °F 70.0 °F 29.97 in NE 0.6 mph 3.5 mph 73 % 0.00 in
13:28 79.3 °F 70.3 °F 29.96 in ENE 2.0 mph 3.5 mph 74 % 0.00 in
13:33 79.2 °F 69.8 °F 29.96 in North 1.2 mph 3.5 mph 73 % 0.00 in
13:38 79.2 °F 70.6 °F 29.96 in NNE 1.0 mph 2.3 mph 75 % 0.00 in
13:43 79.2 °F 69.8 °F 29.96 in NNE 0.6 mph 2.3 mph 73 % 0.00 in
13:48 78.9 °F 69.9 °F 29.96 in NE 0.5 mph 2.3 mph 74 % 0.00 in
13:53 78.8 °F 69.8 °F 29.96 in NE 0.6 mph 2.3 mph 74 % 0.00 in
13:58 78.6 °F 70.4 °F 29.96 in NE 0.2 mph 1.2 mph 76 % 0.00 in
14:03 78.5 °F 69.9 °F 29.96 in NE 0.4 mph 1.2 mph 75 % 0.00 in
14:08 78.5 °F 69.9 °F 29.96 in NE 0.1 mph 1.2 mph 75 % 0.00 in
14:13 78.6 °F 70.0 °F 29.96 in Calm     75 % 0.00 in
14:14 78.6 °F 70.0 °F 29.96 in NE 0.6 mph 1.2 mph 75 % 0.00 in
14:19 78.6 °F 70.0 °F 29.95 in NE 0.3 mph 2.0 mph 75 % 0.00 in
14:24 78.5 °F 70.3 °F 29.96 in NE 1.6 mph 3.5 mph 76 % 0.00 in
14:29 78.2 °F 69.6 °F 29.95 in NE 0.2 mph 1.2 mph 75 % 0.00 in
14:34 78.1 °F 69.9 °F 29.95 in Calm     76 % 0.00 in
14:39 78.0 °F 69.8 °F 29.96 in Calm     76 % 0.00 in
14:44 77.9 °F 70.1 °F 29.96 in Calm   1.2 mph 77 % 0.00 in
14:49 78.0 °F 70.6 °F 29.95 in Calm   1.2 mph 78 % 0.00 in
14:54 78.1 °F 70.3 °F 29.95 in ENE 1.4 mph 3.5 mph 77 % 0.00 in
14:59 78.2 °F 70.4 °F 29.95 in ENE 0.7 mph 2.3 mph 77 % 0.00 in
15:04 78.1 °F 69.9 °F 29.95 in ENE 0.2 mph 1.2 mph 76 % 0.00 in
15:09 78.0 °F 70.2 °F 29.94 in Calm   1.2 mph 77 % 0.00 in
15:14 77.9 °F 70.1 °F 29.94 in Calm     77 % 0.00 in
15:19 77.8 °F 70.0 °F 29.94 in ENE 0.1 mph 1.2 mph 77 % 0.00 in
15:25 77.6 °F 69.8 °F 29.94 in ENE 0.2 mph 2.3 mph 77 % 0.00 in
15:30 77.5 °F 70.1 °F 29.94 in Calm     78 % 0.00 in
15:35 77.3 °F 69.9 °F 29.94 in NE 0.6 mph 2.3 mph 78 % 0.00 in
15:40 77.1 °F 70.1 °F 29.94 in NE 0.3 mph 2.3 mph 79 % 0.00 in
15:45 77.0 °F 70.0 °F 29.94 in Calm     79 % 0.00 in
15:50 77.1 °F 70.5 °F 29.93 in Calm     80 % 0.00 in
15:55 77.2 °F 70.5 °F 29.93 in Calm     80 % 0.00 in
16:00 77.3 °F 70.6 °F 29.93 in Calm   1.2 mph 80 % 0.00 in
16:05 77.3 °F 70.3 °F 29.93 in NE 0.2 mph 1.2 mph 79 % 0.00 in
16:10 77.4 °F 70.7 °F 29.93 in Calm     80 % 0.00 in
16:15 77.5 °F 70.8 °F 29.92 in NE 0.2 mph 1.2 mph 80 % 0.00 in
16:20 77.5 °F 70.1 °F 29.92 in Calm     78 % 0.00 in
16:21 77.5 °F 70.1 °F 29.92 in Calm     78 % 0.00 in
16:26 77.5 °F 69.7 °F 29.92 in Calm     77 % 0.00 in
16:31 77.6 °F 70.2 °F 29.92 in Calm     78 % 0.00 in
16:36 77.6 °F 70.2 °F 29.92 in Calm     78 % 0.00 in
16:41 77.7 °F 70.3 °F 29.92 in Calm     78 % 0.00 in
16:46 77.8 °F 70.4 °F 29.92 in Calm     78 % 0.00 in
16:52 77.8 °F 69.6 °F 29.92 in Calm     76 % 0.00 in
16:57 77.9 °F 70.5 °F 29.92 in Calm     78 % 0.00 in
17:02 78.0 °F 70.6 °F 29.92 in Calm     78 % 0.00 in
17:07 78.0 °F 70.6 °F 29.92 in Calm     78 % 0.00 in
17:12 78.1 °F 70.7 °F 29.92 in Calm     78 % 0.00 in
17:17 78.2 °F 70.8 °F 29.92 in Calm     78 % 0.00 in
17:22 78.2 °F 70.8 °F 29.92 in Calm     78 % 0.00 in
17:27 78.3 °F 70.9 °F 29.92 in Calm     78 % 0.00 in
17:32 78.4 °F 71.3 °F 29.92 in Calm     79 % 0.00 in
17:37 78.4 °F 71.0 °F 29.92 in Calm     78 % 0.00 in
17:42 78.4 °F 71.0 °F 29.92 in Calm     78 % 0.00 in
17:47 78.4 °F 71.0 °F 29.92 in Calm     78 % 0.00 in
17:52 78.5 °F 71.4 °F 29.91 in Calm     79 % 0.00 in
17:57 78.4 °F 69.4 °F 29.91 in Calm     74 % 0.00 in
18:02 78.4 °F 69.4 °F 29.91 in West 1.0 mph 3.5 mph 74 % 0.00 in
18:07 78.4 °F 69.0 °F 29.91 in Calm     73 % 0.00 in
18:12 78.3 °F 68.9 °F 29.91 in Calm     73 % 0.00 in
18:17 78.3 °F 68.9 °F 29.91 in Calm     73 % 0.00 in
18:22 78.2 °F 68.8 °F 29.91 in West 0.2 mph 1.0 mph 73 % 0.00 in
18:27 78.2 °F 68.8 °F 29.90 in Calm     73 % 0.00 in
18:32 78.1 °F 69.1 °F 29.91 in West 0.3 mph 1.2 mph 74 % 0.00 in
18:37 78.0 °F 68.6 °F 29.90 in Calm     73 % 0.00 in
18:42 77.8 °F 68.4 °F 29.91 in Calm     73 % 0.00 in
18:47 77.7 °F 68.4 °F 29.91 in Calm     73 % 0.00 in
18:53 77.6 °F 68.7 °F 29.91 in Calm     74 % 0.00 in
18:58 77.5 °F 68.6 °F 29.91 in Calm     74 % 0.00 in
19:03 77.4 °F 68.1 °F 29.91 in Calm     73 % 0.00 in
19:08 77.2 °F 68.3 °F 29.91 in Calm   1.2 mph 74 % 0.00 in
19:13 77.1 °F 68.2 °F 29.92 in Calm   2.3 mph 74 % 0.00 in
19:18 77.0 °F 68.1 °F 29.91 in Calm   1.2 mph 74 % 0.00 in
19:23 76.8 °F 68.3 °F 29.91 in Calm     75 % 0.00 in
19:28 76.7 °F 68.2 °F 29.91 in Calm     75 % 0.00 in
19:33 76.6 °F 68.5 °F 29.91 in Calm     76 % 0.00 in
19:38 76.5 °F 68.4 °F 29.91 in Calm     76 % 0.00 in
19:43 76.4 °F 68.7 °F 29.91 in Calm     77 % 0.00 in
19:48 76.3 °F 68.6 °F 29.92 in Calm     77 % 0.00 in
19:53 76.2 °F 68.5 °F 29.92 in Calm     77 % 0.00 in
19:58 76.0 °F 68.6 °F 29.92 in Calm     78 % 0.00 in
20:03 75.9 °F 68.5 °F 29.92 in Calm     78 % 0.00 in
20:08 75.8 °F 68.4 °F 29.91 in SE 0.4 mph 1.2 mph 78 % 0.00 in
20:13 75.6 °F 68.6 °F 29.91 in Calm     79 % 0.00 in
20:18 75.4 °F 68.4 °F 29.92 in Calm     79 % 0.00 in
20:23 75.3 °F 68.3 °F 29.92 in Calm     79 % 0.00 in
20:28 75.1 °F 68.1 °F 29.92 in Calm   1.0 mph 79 % 0.00 in
20:33 74.9 °F 68.3 °F 29.92 in SE 0.1 mph 1.2 mph 80 % 0.00 in
20:38 74.8 °F 68.2 °F 29.91 in Calm   1.2 mph 80 % 0.00 in
20:43 74.6 °F 68.4 °F 29.92 in Calm     81 % 0.00 in
20:48 74.5 °F 68.3 °F 29.91 in Calm     81 % 0.00 in
20:53 74.4 °F 68.5 °F 29.91 in Calm   1.2 mph 82 % 0.00 in
20:58 74.3 °F 68.4 °F 29.92 in Calm     82 % 0.00 in
21:03 74.2 °F 68.3 °F 29.92 in Calm     82 % 0.00 in
21:08 74.1 °F 68.3 °F 29.92 in Calm     82 % 0.00 in
21:13 74.0 °F 68.5 °F 29.92 in Calm     83 % 0.00 in
21:18 73.9 °F 68.4 °F 29.92 in Calm     83 % 0.00 in
21:23 73.9 °F 68.8 °F 29.91 in Calm     84 % 0.00 in
21:28 73.8 °F 68.7 °F 29.91 in Calm     84 % 0.00 in
21:33 73.8 °F 68.7 °F 29.91 in Calm     84 % 0.00 in
21:38 73.7 °F 68.6 °F 29.91 in Calm     84 % 0.00 in
21:43 73.6 °F 68.5 °F 29.91 in Calm     84 % 0.00 in
21:48 73.5 °F 68.4 °F 29.91 in Calm     84 % 0.00 in
21:54 73.5 °F 68.4 °F 29.91 in Calm     84 % 0.00 in
21:59 73.3 °F 68.5 °F 29.91 in Calm     85 % 0.00 in
22:04 73.2 °F 68.4 °F 29.91 in Calm     85 % 0.00 in
22:09 73.1 °F 68.3 °F 29.92 in Calm     85 % 0.00 in
22:14 73.0 °F 68.2 °F 29.92 in Calm     85 % 0.00 in
22:19 72.9 °F 68.1 °F 29.92 in Calm     85 % 0.00 in
22:24 72.8 °F 68.4 °F 29.91 in Calm     86 % 0.00 in
22:29 72.7 °F 68.3 °F 29.91 in Calm     86 % 0.00 in
22:34 72.6 °F 68.2 °F 29.91 in Calm     86 % 0.00 in
22:39 72.4 °F 68.0 °F 29.91 in Calm     86 % 0.00 in
22:44 72.3 °F 67.9 °F 29.91 in Calm     86 % 0.00 in
22:49 72.2 °F 67.8 °F 29.91 in Calm     86 % 0.00 in
22:54 72.1 °F 67.7 °F 29.91 in Calm     86 % 0.00 in
22:59 72.0 °F 67.9 °F 29.91 in Calm     87 % 0.00 in
23:04 71.9 °F 67.8 °F 29.91 in Calm     87 % 0.00 in
23:09 71.7 °F 67.6 °F 29.91 in Calm     87 % 0.00 in
23:14 71.6 °F 67.5 °F 29.91 in Calm     87 % 0.00 in
23:19 71.5 °F 67.8 °F 29.91 in Calm     88 % 0.00 in
23:24 71.5 °F 67.8 °F 29.91 in SE 0.1 mph   88 % 0.00 in
23:29 71.4 °F 68.0 °F 29.91 in Calm     89 % 0.00 in
23:34 71.3 °F 67.9 °F 29.91 in Calm     89 % 0.00 in
23:39 71.2 °F 68.1 °F 29.91 in Calm     90 % 0.00 in
23:44 71.2 °F 68.1 °F 29.90 in Calm     90 % 0.00 in
23:49 71.1 °F 68.0 °F 29.91 in Calm     90 % 0.00 in
23:54 71.1 °F 68.0 °F 29.90 in Calm     90 % 0.00 in
23:59 71.0 °F 67.9 °F 29.91 in Calm     90 % 0.00 in
Crab Meadow Weather
Compliments of Weather Underground - 3 mb

Script developed by  Jim McMurry - jmcmurry@mwt.net Adapted for the template by  Wim van der Kuil - Leuven-Template.eu

Weather Terms: Watch - A watch is used when the risk of a hazardous weather or hydrologic event has increased significantly, but its occurrence, location or timing is still uncertain. It is intended to provide enough lead time so those who need to set their plans in motion can do so. A watch means that hazardous weather is possible. People should have a plan of action in case a storm threatens and they should listen for later information and possible warnings especially when planning travel or outdoor activities.